Showing default

DMC 3-FM1, 40715

Orbit data source: Space-Track

DMC 3-FM1, 40715 is a payload satellite owned by DMCii (UK) in SSO that was launched on Fri, 10 Jul 2015 UTC via a PSLV-XL launch vehicle from the Sirharikota (SRI). Payloads include a variety of satellites, spacecraft, and rockets equipped with specific instruments for various scientific and technological missions. These include communications satellites like Starlink; space stations such as the ISS; scientific satellites like the Hubble; Earth observation satellites from companies like Planet Labs, Umbra, and HawkEye 360; GPS; miniature CubeSats for education and research; and military/defense satellites.

Loading next visibility...
DMC 3-FM1 details
Identifier
40715, 2015-032A
Orbit
SSO
Last TLE update6 hours ago
Origin
Flag of UKDMCii (UK)
ManufacturerSSTL (Astrium)
MissionOperational Commercial Imaging
Bus & MotorSSTL-300S1, Unknown motor
Mass447 kg wet, 435 kg dry
Launch date (UTC)
2015-07-10 (9 years ago)
Launch vehicle
PSLV-XL
Launch site
Sirharikota (SRI)
Object type
Payload
Rocket body
Debris
Shape & HBRHept Cyl + Cyl, 2.5 m
Radar Cross Section2.356 m², Large (>1 m²)

Expand to show TLE details & history

TLE from 6 hours ago
0 DMC 3-FM1
1 40715U 15032A   24340.15500701  .00002093  00000-0  25454-3 0  9997
2 40715  97.7224 213.8771 0007221  91.2857 268.9185 14.84474328506930
Epoch: 2024-12-05T03:43Z
Definitive object data (Epoch: 2024-12-05T03:43:12.605Z)
Latitude-0.00005°
Longitude83.63472°
Altitude618.368 km
Speed7.55 km/s
True Right ascension14h 15m 30s
True Declination0° 00' 00"
Sunlit
Object was in daylight at TLE epoch
Visualization TLE readout
Latitude-31.80849°
Longitude88.68838°
Altitude629.93 km
Speed7.541 km/s
Apparent Right ascension16h 59m 13s
Apparent Declination-43° 08' 35"
Sunlit
Object is in daylight
Visualization observer readout
Local Sidereal Time08:01:09
Azimuth110.665° ESE
Elevation-56.216°
Doppler factor1
Orbital elements
Apogee altitude617.311 km
Perigee altitude607.216 km
Semi-major axis6,990.4 km
Eccentricity0.0007221
Inclination97.7224°
RAAN213.8771°
Arg. of periapsis91.2857°
True anomaly268.83577°
Mean anomaly268.9185°
Eccentric anomaly268.87713°
Mean motion3.71356 °/min
BSTAR0.00025454
Orbital period96.94 mins
Loading maneuver chart data...
Loading historical data...
Loading historical data...
Loading historical data...
Loading historical data...
Loading historical data...
Loading historical data...
Loading historical data...

DMC 3-FM1 Visibility forecast

Observer location: undefined°, undefined

Span
Click to sort rows by Start time (UTC) header in descending order
Start Az.
Max El. time (UTC)
Max El. Az.
Max El.
End time (UTC)
End Az.
6 mins2024-12-05 15:10:50.176Z130.283° SE2024-12-05 15:13:50.176Z77.066° E28.318°2024-12-05 15:16:50.176Z15.061° NNE
4 mins2024-12-05 16:48:50.176Z242.387° WSW2024-12-05 16:49:50.176Z260.597° W18.616°2024-12-05 16:52:50.176Z309.466° NW
7 mins2024-12-06 04:33:50.176Z18.273° NNE2024-12-06 04:36:50.176Z103.944° ESE43.941°2024-12-06 04:40:50.176Z187.241° SSW
|